Powrót do katalogu

FENGYUN 1C DEB

AktywnyPO
NORAD 30933·DEBRIS·🇨🇳 China

Wystrzelony May 10, 1999 z Taiyuan Satellite Launch Center

Loading…

Następne Przeloty (najbliższe 24 godziny)

TLE

ŚwieżeSource: Space-Track

Epoka: Sep 14, 2026, 11:25 UTC

1 30933U 99025AZX 26257.47616940  .00006057  00000-0  17873-2 0  9998
2 30933  99.0570 260.6879 0065370 228.2745 286.5298 14.42703694998409

Śledź FENGYUN 1C DEB w czasie rzeczywistym z AllMySat

Download on the App Store